Regional Weather Roundup
Issued by NWS

Home | Current Version | Previous Version | Graphics & Text | Print | Product List | Glossary On
Versions: 1 2 3 4 5 6 7 8 9 10 11 12 13 14 15 16 17 18 19 20 21 22 23 24 25 26 27
000
ASUS45 KCYS 171010
RWRWY

WYOMING REGIONAL WEATHER ROUNDUP
NATIONAL WEATHER SERVICE CHEYENNE WY
400 AM MDT THU APR 17 2014

NOTE:  "FAIR" INDICATES FEW OR NO CLOUDS BELOW 12,000 FEET
WITH NO SIGNIFICANT WEATHER AND/OR OBSTRUCTIONS TO VISIBILITY.

WYZ001-171100-
YELLOWSTONE NATIONAL PARK

CITY           SKY/WX    TMP DP  RH WIND       PRES   REMARKS
LK YELLOWSTONE   N/A     22  16  78 CALM      30.04R
W YELLOWSTONE  NOT AVBL

$$
WYZ002>013-054>058-071-098>099-171100-
NORTHERN WYOMING

CITY           SKY/WX    TMP DP  RH WIND       PRES   REMARKS
JACKSON          N/A     23  19  86 CALM      30.04R
CODY           PTCLDY    28  25  86 S7        29.99F WCI  21
GREYBULL       MOCLDY    34  30  85 SE5       30.01S WCI  30
WORLAND        PTCLDY    31  28  89 SE6       30.01R WCI  25
SHERIDAN       CLOUDY    32  30  92 N5        30.02S WCI  27
BUFFALO        CLOUDY    27  25  92 CALM      30.01S
GILLETTE       CLEAR     32  29  88 S16       30.03F WCI  21
HULETT         CLOUDY    34  32  93 SW9G18    30.07  WCI  26
NEWCASTLE      CLOUDY    30  30 100 SE6       30.11  WCI  24

$$
WYZ014>020-022>026-101>103-171100-
CENTRAL WYOMING

CITY           SKY/WX    TMP DP  RH WIND       PRES   REMARKS
BIG PINEY      PTCLDY    19  13  77 E6        30.06R WCI  11
PINEDALE       SUNNY     21  19  93 NW6       30.07R WCI  14
DUBOIS         FAIR      23  14  68 NW8       30.01S WCI  14
LANDER         CLEAR     29  25  85 NW8       30.03R WCI  21
RIVERTON       PTCLDY    26  24  92 NW6       30.03S WCI  19
CASPER         CLOUDY    31  29  92 NW6       30.04R WCI  25
DOUGLAS        MOCLDY    33  31  92 SE14      30.05F WCI  23

$$
WYZ021-027>030-104>119-171100-
SOUTHERN WYOMING

CITY           SKY/WX    TMP DP  RH WIND       PRES   REMARKS
EVANSTON       CLEAR     30  10  43 S5        30.07R WCI  25
FORT BRIDGER   FAIR      33  10  38 W8        30.09R WCI  27
ROCK SPRINGS   PTCLDY    29  10  45 S5        30.05S WCI  24
DIXON          CLOUDY    28  21  74 CALM      30.08R
RAWLINS        CLEAR     20  17  88 CALM      30.04F
SARATOGA       FAIR      23  18  80 W3        30.05R
LARAMIE        CLEAR     27  24  89 S13       30.01S WCI  16
CHEYENNE       CLOUDY    30  29  96 S12       30.05F FOG     WCI  20
TORRINGTON     CLOUDY    32  30  92 SE12      30.10F WCI  23
PINE BLUFFS    FAIR      28  28 100 SE10      30.08F WCI  19

$$



USA.gov is the U.S. government's official web portal to all federal, state and local government web resources and services.